| time (UTC) | temp F | wind direction | speed MPH | gust MPH | rain 1hr in | rain 24hr in | rain mn in | humidity % | barometer mb |
| 20260504203046 | 70 | 229 | 4.0 | 9.0 | 0.00 | 0.00 | 0.00 | 32 | 1006.1 |
| 20260504201542 | 68 | 146 | 2.0 | 10.0 | 0.00 | 0.00 | 0.00 | 32 | 1006.1 |
| 20260504200053 | 67 | 9 | 6.0 | 10.0 | 0.00 | 0.00 | 0.00 | 34 | 1006.2 |
| 20260504194549 | 68 | 148 | 5.0 | 11.0 | 0.00 | 0.00 | 0.00 | 34 | 1006.2 |
| 20260504193047 | 67 | 342 | 5.0 | 16.0 | 0.00 | 0.00 | 0.00 | 35 | 1006.2 |
| 20260504191545 | 67 | 154 | 3.0 | 8.0 | 0.00 | 0.00 | 0.00 | 34 | 1006.3 |
| 20260504190041 | 68 | 98 | 4.0 | 13.0 | 0.00 | 0.00 | 0.00 | 32 | 1006.3 |
| 20260504184540 | 68 | 126 | 3.0 | 11.0 | 0.00 | 0.00 | 0.00 | 33 | 1006.5 |
| 20260504183047 | 68 | 142 | 6.0 | 15.0 | 0.00 | 0.00 | 0.00 | 32 | 1006.5 |
| 20260504181552 | 68 | 101 | 3.0 | 12.0 | 0.00 | 0.00 | 0.00 | 32 | 1006.6 |
| 20260504180047 | 66 | 30 | 5.0 | 12.0 | 0.00 | 0.00 | 0.00 | 33 | 1006.6 |
| 20260504174541 | 65 | 328 | 4.0 | 9.0 | 0.00 | 0.00 | 0.00 | 34 | 1006.9 |
| 20260504173040 | 65 | 193 | 2.0 | 9.0 | 0.00 | 0.00 | 0.00 | 33 | 1006.6 |
| 20260504171548 | 67 | 348 | 5.0 | 20.0 | 0.00 | 0.00 | 0.00 | 31 | 1006.8 |
| 20260504081549 | 42 | 44 | 1.0 | 3.0 | 0.00 | 0.00 | 0.00 | 67 | 1009.4 |
| 20260504044545 | 33 | 0 | 0.0 | 0.0 | 0.00 | 0.00 | 0.00 | 84 | 1009.7 |
| 20260504043055 | 33 | 0 | 0.0 | 1.0 | 0.00 | 0.00 | 0.00 | 85 | 1009.7 |
| 20260504041544 | 32 | 0 | 0.0 | 0.0 | 0.00 | 0.00 | 0.00 | 85 | 1009.8 |
| 20260504040043 | 32 | 0 | 0.0 | 0.0 | 0.00 | 0.00 | 0.00 | 86 | 1009.6 |
| 20260504034541 | 31 | 0 | 0.0 | 0.0 | 0.00 | 0.00 | 0.00 | 85 | 1009.5 |
| 20260504033048 | 31 | 0 | 0.0 | 0.0 | 0.00 | 0.00 | 0.00 | 85 | 1009.5 |
| 20260504031546 | 32 | 0 | 0.0 | 0.0 | 0.00 | 0.00 | 0.00 | 84 | 1009.4 |
| 20260504030047 | 33 | 0 | 0.0 | 0.0 | 0.00 | 0.00 | 0.00 | 83 | 1009.3 |
| 20260504024545 | 33 | 0 | 0.0 | 0.0 | 0.00 | 0.00 | 0.00 | 83 | 1009.4 |
| 20260504023041 | 33 | 0 | 0.0 | 0.0 | 0.00 | 0.00 | 0.00 | 82 | 1009.3 |
| 20260504021547 | 34 | 0 | 0.0 | 0.0 | 0.00 | 0.00 | 0.00 | 80 | 1009.4 |
| 20260504020125 | 35 | 0 | 0.0 | 0.0 | 0.00 | 0.00 | 0.00 | 79 | 1009.3 |
| 20260504014559 | 36 | 0 | 0.0 | 0.0 | 0.00 | 0.00 | 0.00 | 78 | 1009.1 |
| 20260504013055 | 37 | 0 | 0.0 | 0.0 | 0.00 | 0.00 | 0.00 | 75 | 1009.0 |
| 20260504011541 | 37 | 0 | 0.0 | 0.0 | 0.00 | 0.00 | 0.00 | 73 | 1008.9 |
| 20260504010044 | 38 | 0 | 0.0 | 0.0 | 0.00 | 0.00 | 0.00 | 70 | 1008.6 |
| 20260504004608 | 40 | 0 | 0.0 | 0.0 | 0.00 | 0.00 | 0.00 | 68 | 1008.2 |
| 20260504003051 | 41 | 0 | 0.0 | 0.0 | 0.00 | 0.00 | 0.00 | 61 | 1008.2 |
| 20260504001617 | 42 | 0 | 0.0 | 0.0 | 0.00 | 0.00 | 0.00 | 58 | 1008.0 |
| 20260504000048 | 44 | 0 | 0.0 | 0.0 | 0.00 | 0.00 | 0.00 | 53 | 1007.8 |
| 20260503234543 | 46 | 115 | 0.0 | 3.0 | 0.00 | 0.00 | 0.00 | 50 | 1007.8 |
| 20260503233102 | 47 | 51 | 0.0 | 2.0 | 0.00 | 0.00 | 0.00 | 45 | 1007.6 |
| 20260503231541 | 48 | 27 | 1.0 | 3.0 | 0.00 | 0.00 | 0.00 | 44 | 1007.5 |
| 20260503230106 | 49 | 162 | 2.0 | 10.0 | 0.00 | 0.00 | 0.00 | 43 | 1007.5 |
| 20260503224546 | 49 | 127 | 2.0 | 5.0 | 0.00 | 0.01 | 0.00 | 44 | 1007.4 |
| 20260503223045 | 48 | 207 | 1.0 | 6.0 | 0.00 | 0.01 | 0.00 | 44 | 1007.3 |
| 20260503221542 | 48 | 181 | 3.0 | 9.0 | 0.00 | 0.01 | 0.00 | 45 | 1007.3 |
| 20260503220048 | 48 | 135 | 2.0 | 8.0 | 0.00 | 0.01 | 0.00 | 43 | 1007.2 |
| 20260503214540 | 48 | 150 | 2.0 | 8.0 | 0.00 | 0.05 | 0.00 | 42 | 1007.1 |
| 20260503213047 | 49 | 48 | 4.0 | 10.0 | 0.00 | 0.05 | 0.00 | 41 | 1007.1 |
| 20260503211548 | 49 | 170 | 2.0 | 12.0 | 0.00 | 0.05 | 0.00 | 41 | 1006.9 |
| 20260503210045 | 50 | 77 | 2.0 | 8.0 | 0.00 | 0.05 | 0.00 | 41 | 1006.4 |
| 20260503204545 | 49 | 167 | 4.0 | 16.0 | 0.00 | 0.08 | 0.00 | 40 | 1006.5 |